Voltar ao catálogo

COSMOS 2251 DEB

AtivoLEO
NORAD 37969·DEBRIS·🇷🇺 Russia

Lançado Jun 16, 1993 de Plesetsk Cosmodrome

Loading…

Próximas Passagens (próximas 24 horas)

TLE

ObsoletoSource: Space-Track

Época: Sep 7, 2026, 09:30 UTC

1 37969U 93036BPU 26250.39632929  .00004338  00000-0  11036-2 0  9994
2 37969  73.9753 151.2368 0104333 286.0353  72.9335 14.47746545553501

Acompanhe COSMOS 2251 DEB em tempo real com AllMySat

Download on the App Store